EN

Hourly Weather Cislitsa-Prut

Today, 3 August, Tuesday

Time Temperature Precipitation Wind Pressure Humidity
00:00 +25°C° 0 mm 4 mps 754 mmHg 70%
01:00 +23°C° 0 mm 4 mps 754 mmHg 72%
02:00 +24°C° 0 mm 3 mps 754 mmHg 74%
03:00 +22°C° 0 mm 4 mps 754 mmHg 76%
04:00 +22°C° 0 mm 5 mps 755 mmHg 79%
05:00 +22°C° 0 mm 6 mps 755 mmHg 81%
06:00 +23°C° 0 mm 6 mps 755 mmHg 75%
07:00 +24°C° 0 mm 6 mps 756 mmHg 69%
08:00 +26°C° 0 mm 6 mps 756 mmHg 63%
09:00 +27°C° 0 mm 6 mps 756 mmHg 57%
10:00 +29°C° 0 mm 6 mps 756 mmHg 52%
11:00 +30°C° 0 mm 5 mps 757 mmHg 46%
12:00 +32°C° 0 mm 5 mps 756 mmHg 43%
13:00 +33°C° 0 mm 5 mps 756 mmHg 40%
14:00 +34°C° 0 mm 4 mps 756 mmHg 36%
15:00 +33°C° 0 mm 4 mps 756 mmHg 37%
16:00 +33°C° 0 mm 3 mps 756 mmHg 38%
17:00 +31°C° 0 mm 2 mps 756 mmHg 39%
18:00 +30°C° 0 mm 3 mps 756 mmHg 43%
19:00 +28°C° 0 mm 3 mps 756 mmHg 47%
20:00 +27°C° 0 mm 3 mps 756 mmHg 51%
21:00 +26°C° 0 mm 3 mps 756 mmHg 55%
22:00 +25°C° 0 mm 3 mps 756 mmHg 58%
23:00 +24°C° 0 mm 3 mps 757 mmHg 61%

Tomorrow, 4 August, Wednesday

Time Temperature Precipitation Wind Pressure Humidity
00:00 +24°C° 0.1 mm 3 mps 757 mmHg 64%
01:00 +23°C° 0.1 mm 2 mps 757 mmHg 67%
02:00 +22°C° 0.1 mm 1 mps 757 mmHg 70%
03:00 +22°C° 0.3 mm 1 mps 757 mmHg 71%
04:00 +22°C° 0.3 mm 1 mps 757 mmHg 72%
05:00 +21°C° 0.3 mm 1 mps 757 mmHg 73%
06:00 +23°C° 0.5 mm 2 mps 758 mmHg 70%
07:00 +24°C° 0.5 mm 2 mps 758 mmHg 66%
08:00 +26°C° 0.5 mm 2 mps 758 mmHg 63%
09:00 +27°C° 0.2 mm 2 mps 758 mmHg 60%
10:00 +28°C° 0.2 mm 2 mps 758 mmHg 57%
11:00 +29°C° 0.2 mm 2 mps 757 mmHg 54%
12:00 +30°C° 0.2 mm 3 mps 757 mmHg 52%
13:00 +30°C° 0.2 mm 3 mps 757 mmHg 50%
14:00 +31°C° 0.2 mm 3 mps 756 mmHg 48%
15:00 +32°C° 0.1 mm 4 mps 756 mmHg 46%
16:00 +33°C° 0.1 mm 5 mps 756 mmHg 44%
17:00 +33°C° 0.1 mm 6 mps 755 mmHg 42%
18:00 +30°C° 0.1 mm 5 mps 756 mmHg 49%
19:00 +28°C° 0.1 mm 4 mps 756 mmHg 57%
20:00 +26°C° 0.1 mm 3 mps 756 mmHg 64%
21:00 +26°C° 0.1 mm 3 mps 756 mmHg 67%
22:00 +25°C° 0.1 mm 3 mps 756 mmHg 71%
23:00 +24°C° 0.1 mm 3 mps 757 mmHg 75%

Day after tomorrow, 5 August, Thursday

Time Temperature Precipitation Wind Pressure Humidity
00:00 +24°C° 0 mm 3 mps 756 mmHg 76%
01:00 +24°C° 0 mm 2 mps 756 mmHg 77%
02:00 +23°C° 0 mm 2 mps 756 mmHg 78%
03:00 +23°C° 0 mm 2 mps 756 mmHg 81%
04:00 +23°C° 0 mm 2 mps 756 mmHg 83%
05:00 +23°C° 0 mm 2 mps 755 mmHg 86%
06:00 +25°C° 0 mm 2 mps 755 mmHg 80%
07:00 +26°C° 0 mm 3 mps 755 mmHg 73%
08:00 +28°C° 0 mm 3 mps 755 mmHg 67%
09:00 +30°C° 0 mm 3 mps 755 mmHg 58%
10:00 +33°C° 0 mm 4 mps 754 mmHg 49%
11:00 +35°C° 0 mm 4 mps 754 mmHg 40%
12:00 +36°C° 0 mm 4 mps 754 mmHg 36%
13:00 +37°C° 0 mm 5 mps 753 mmHg 32%
14:00 +40°C° 0 mm 5 mps 753 mmHg 29%
15:00 +39°C° 0 mm 6 mps 752 mmHg 32%
16:00 +38°C° 0 mm 7 mps 752 mmHg 35%
17:00 +37°C° 0 mm 8 mps 752 mmHg 38%
18:00 +34°C° 0 mm 8 mps 751 mmHg 48%
19:00 +32°C° 0 mm 8 mps 751 mmHg 58%
20:00 +28°C° 0 mm 9 mps 751 mmHg 68%
21:00 +28°C° 0 mm 7 mps 751 mmHg 70%
22:00 +27°C° 0 mm 5 mps 751 mmHg 73%
23:00 +27°C° 0 mm 4 mps 751 mmHg 75%

6 August, Friday

Time Temperature Precipitation Wind Pressure Humidity
00:00 +26°C° 0 mm 4 mps 750 mmHg 78%
01:00 +26°C° 0 mm 4 mps 750 mmHg 80%
02:00 +26°C° 0 mm 4 mps 750 mmHg 83%
03:00 +25°C° 0 mm 4 mps 750 mmHg 84%
04:00 +25°C° 0 mm 4 mps 750 mmHg 86%
05:00 +25°C° 0 mm 4 mps 749 mmHg 87%
06:00 +26°C° 0 mm 4 mps 749 mmHg 78%
07:00 +28°C° 0 mm 5 mps 749 mmHg 69%
08:00 +30°C° 0 mm 6 mps 749 mmHg 60%
09:00 +32°C° 0 mm 6 mps 749 mmHg 53%
10:00 +34°C° 0 mm 6 mps 749 mmHg 45%
11:00 +35°C° 0 mm 6 mps 749 mmHg 38%
12:00 +36°C° 0 mm 5 mps 749 mmHg 37%
13:00 +36°C° 0 mm 4 mps 748 mmHg 36%
14:00 +36°C° 0 mm 3 mps 748 mmHg 35%
15:00 +36°C° 0.1 mm 3 mps 748 mmHg 35%
16:00 +36°C° 0.1 mm 3 mps 748 mmHg 35%
17:00 +35°C° 0.1 mm 3 mps 748 mmHg 34%
18:00 +33°C° 0 mm 3 mps 748 mmHg 43%
19:00 +30°C° 0 mm 3 mps 748 mmHg 51%
20:00 +28°C° 0 mm 2 mps 749 mmHg 60%
21:00 +27°C° 0.1 mm 2 mps 749 mmHg 61%
22:00 +26°C° 0.1 mm 2 mps 749 mmHg 63%
23:00 +26°C° 0.1 mm 2 mps 750 mmHg 64%

7 August, Saturday

Time Temperature Precipitation Wind Pressure Humidity
00:00 +24°C° 1.2 mm 2 mps 750 mmHg 69%
01:00 +22°C° 1.2 mm 3 mps 751 mmHg 74%
02:00 +21°C° 1.2 mm 4 mps 751 mmHg 79%
03:00 +21°C° 0.4 mm 4 mps 751 mmHg 81%
04:00 +21°C° 0.4 mm 4 mps 751 mmHg 83%
05:00 +21°C° 0.4 mm 4 mps 751 mmHg 86%
06:00 +21°C° 0 mm 5 mps 752 mmHg 82%
07:00 +22°C° 0 mm 6 mps 752 mmHg 79%
08:00 +23°C° 0 mm 8 mps 752 mmHg 76%
09:00 +24°C° 0 mm 8 mps 752 mmHg 68%
10:00 +27°C° 0 mm 7 mps 753 mmHg 61%
11:00 +29°C° 0 mm 7 mps 753 mmHg 53%
12:00 +30°C° 0 mm 7 mps 753 mmHg 49%
13:00 +32°C° 0 mm 6 mps 753 mmHg 45%
14:00 +33°C° 0 mm 6 mps 753 mmHg 42%
15:00 +32°C° 0 mm 6 mps 754 mmHg 41%
16:00 +32°C° 0 mm 6 mps 754 mmHg 41%
17:00 +32°C° 0 mm 6 mps 754 mmHg 41%
18:00 +29°C° 0 mm 5 mps 754 mmHg 46%
19:00 +28°C° 0 mm 4 mps 754 mmHg 51%
20:00 +26°C° 0 mm 3 mps 755 mmHg 56%
21:00 +25°C° 0 mm 3 mps 755 mmHg 58%
22:00 +25°C° 0 mm 3 mps 756 mmHg 60%
23:00 +24°C° 0 mm 3 mps 756 mmHg 63%

8 August, Sunday

Time Temperature Precipitation Wind Pressure Humidity
00:00 +22°C° 0 mm 3 mps 756 mmHg 64%
01:00 +22°C° 0 mm 3 mps 757 mmHg 66%
02:00 +21°C° 0 mm 3 mps 757 mmHg 68%
03:00 +21°C° 0 mm 3 mps 757 mmHg 69%
04:00 +20°C° 0 mm 2 mps 757 mmHg 71%
05:00 +20°C° 0 mm 2 mps 757 mmHg 73%
06:00 +23°C° 0 mm 2 mps 757 mmHg 67%
07:00 +24°C° 0 mm 2 mps 758 mmHg 61%
08:00 +26°C° 0 mm 2 mps 758 mmHg 56%
09:00 +28°C° 0 mm 2 mps 758 mmHg 50%
10:00 +29°C° 0 mm 1 mps 758 mmHg 45%
11:00 +31°C° 0 mm 1 mps 758 mmHg 39%
12:00 +32°C° 0 mm 1 mps 758 mmHg 37%
13:00 +33°C° 0 mm 1 mps 757 mmHg 34%
14:00 +34°C° 0 mm 1 mps 757 mmHg 32%
15:00 +34°C° 0 mm 1 mps 757 mmHg 31%
16:00 +34°C° 0 mm 1 mps 757 mmHg 30%
17:00 +34°C° 0 mm 1 mps 757 mmHg 30%
18:00 +32°C° 0 mm 1 mps 757 mmHg 34%
19:00 +31°C° 0 mm 2 mps 757 mmHg 39%
20:00 +29°C° 0 mm 2 mps 757 mmHg 44%
21:00 +28°C° 0 mm 2 mps 757 mmHg 45%
22:00 +27°C° 0 mm 2 mps 758 mmHg 46%
23:00 +27°C° 0 mm 1 mps 758 mmHg 47%
Show more